Regional Weather Roundup
Issued by NWS

Home | Current Version | Previous Version | Text Only | Print | Product List | Glossary On
Versions: 1 2 3 4 5 6 7 8 9 10 11 12 13 14 15 16 17 18 19 20 21 22 23 24 25 26 27 28 29 30 31 32 33 34 35
000
ASUS42 KFFC 231703
RWRGA
WEATHER ROUNDUP FOR GEORGIA
NATIONAL WEATHER SERVICE PEACHTREE CITY GA
100 PM EDT THU OCT 23 2014

NOTE: "FAIR" INDICATES FEW OR NO CLOUDS BELOW 12,000 FEET WITH NO
SIGNIFICANT WEATHER AND/OR OBSTRUCTIONS TO VISIBILITY.

* = USE WITH CAUTION. THE STATIONS MARKED WITH AN ASTERISK MAY NOT
REPORT WEATHER SUCH AS PRECIPITATION, FOG, OR THUNDER AND ARE NOT
QUALITY CONTROLLED BY NWS.

THE REMARK "TC" DENOTES TEMPERATURE READING IN DEGREES CELSIUS.

GAZ001>058-231800-
NORTH GEORGIA

CITY           SKY/WX    TMP DP  RH WIND       PRES   REMARKS
ATLANTA        MOSUNNY   64  43  46 W8        30.11F
ATHENS         SUNNY     65  44  46 VRB3      30.09F
CHAMBLEE       SUNNY     62  41  46 SW6       30.11F
PEACHTREE CITY SUNNY     64  43  46 VRB3      30.13F
ROME           SUNNY     63  43  48 N9        30.13F
WEST ATLANTA   SUNNY     63  43  48 VRB6      30.11F
GAINESVILLE    SUNNY     65  35  33 W6        30.11F
CARTERSVILLE   SUNNY     59  41  51 CALM      30.14F


CITY           SKY/WX    TMP DP  RH WIND       PRES   REMARKS
DALTON*        SUNNY     59  45  58 N7        30.15F
LAWRENCEVILLE* SUNNY     63  39  42 SW7       30.10F
MARIETTA       MOSUNNY   63  44  49 VRB2      30.11F
KENNESAW*      SUNNY     59  39  47 W12       30.14F
$$

GAZ059>098-102>109-231800-
CENTRAL GEORGIA

CITY           SKY/WX    TMP DP  RH WIND       PRES   REMARKS
AUGUSTA-BUSH   SUNNY     67  37  33 NW7       30.08F
AUGUSTA-DANIEL SUNNY     65  38  36 VRB6      30.09F
COLUMBUS       SUNNY     65  44  46 CALM      30.12F
MACON          SUNNY     66  42  41 CALM      30.10F
ROBINS AFB     SUNNY     65  43  44 VRB2      30.10F


CITY           SKY/WX    TMP DP  RH WIND       PRES   REMARKS
LAGRANGE*      SUNNY     67  48  51 CALM      30.13F
SYLVANIA*      SUNNY     71  49  46 N5        30.09F
MILLEDGEVILLE* SUNNY     64  48  55 CALM      30.10F
$$

GAZ099>101-110>166-231800-
SOUTH GEORGIA

CITY           SKY/WX    TMP DP  RH WIND       PRES   REMARKS
SAVANNAH       SUNNY     67  44  43 NW3       30.08F
VALDOSTA       SUNNY     71  41  33 NE7       30.08F
ALMA           SUNNY     68  42  38 E3        30.09F
ST SIMONS      SUNNY     69  44  40 MISG      30.07F
FT STEWART     SUNNY     67  44  43 CALM      30.07F
ALBANY         SUNNY     70  45  40 CALM      30.12F
HUNTER AFB     SUNNY     66  45  46 N7        30.06F
MOODY AFB      SUNNY     71  44  36 E7        30.08F
BRUNSWICK      SUNNY     70  43  37 NW7       30.08F


CITY           SKY/WX    TMP DP  RH WIND       PRES   REMARKS
BAINBRIDGE*    SUNNY     73  46  38 E3        30.09F
MOULTRIE*      SUNNY     68  46  45 E5        30.10F
VIDALIA*       SUNNY     66  46  48 CALM      30.09F
WAYCROSS*      SUNNY     71  47  42 SE3       30.09F
DOUGLAS*       SUNNY     70  41  35 E3        30.11F
$$



USA.gov is the U.S. government's official web portal to all federal, state and local government web resources and services.